Regional Weather Roundup
Issued by NWS Albany, NY

Home | Current Version | Previous Version | Graphics & Text | Print | Product List | Glossary On
Versions: 1 2 3 4 5 6 7 8 9 10 11 12 13 14 15 16 17 18 19 20 21 22 23 24 25 26 27 28 29 30 31 32 33 34 35 36 37 38 39 40 41 42 43 44 45 46 47 48 49 50
000
ASUS41 KALY 020310
RWRALY

NEW YORK STATE HOURLY WEATHER ROUNDUP
NATIONAL WEATHER SERVICE ALBANY NY
1000 PM EST SUN MAR 01 2015

NOTE: "FAIR" INDICATES FEW OR NO CLOUDS BELOW 12,000 FEET WITH NO
SIGNIFICANT WEATHER AND/OR NO OBSTRUCTIONS TO VISIBILITY.

NYZ032-033-038>043-046>054-057>066-NYZ062>081-020400-
EAST


CITY           SKY/WX    TMP DP  RH WIND       PRES   REMARKS
ALBANY         LGT SNOW  24  19  81 S10       30.17F WCI  14
GLENS FALLS    LGT SNOW  23  18  81 SW7       30.15F WCI  15
POUGHKEEPSIE   LGT SNOW  25  21  85 CALM      30.21F FOG
NEWBURGH       LGT SNOW  23  21  93 CALM      30.19F FOG
MONTGOMERY     LGT SNOW  23  21  92 SW3       30.18F FOG
WHITE PLAINS   LGT SNOW  24  21  88 W3        30.19F VSB 1
ISLIP          FRZ DRZL  28  25  88 N3        30.20F FOG
NEW YORK CITY  FRZ RAIN  28  25  86 N3        30.22F FOG
CENTRAL PARK   MIX PCPN  28  23  81 NW3       30.24F
$$

NYZ005>009-017-018-044>046-055-056-020400-
CENTRAL


CITY           SKY/WX    TMP DP  RH WIND       PRES   REMARKS
FULTON         LGT SNOW  24  21  88 CALM      30.13F FOG
SYRACUSE       LGT SNOW  21  21 100 CALM      30.12F FOG
ROME           LGT SNOW  22  21  96 SE5       30.14F FOG     WCI  16
ELMIRA         CLOUDY    24  24 100 CALM      30.12F FOG
BINGHAMTON     LGT SNOW  22  20  92 S6        30.07F FOG     WCI  14
MONTICELLO     CLOUDY    18  18 100 CALM      30.13F
$$

NYZ026>034-041>043-020400-
NORTH


CITY           SKY/WX    TMP DP  RH WIND       PRES   REMARKS
WATERTOWN      LGT SNOW  26  22  84 SW7       30.12S FOG     WCI  18
FORT DRUM      NOT AVBL
MASSENA        CLOUDY    25  23  92 SW7       30.11F FOG     WCI  17
SARANAC LAKE   LGT SNOW  20  18  92 SW6       30.00F VSB 1   WCI  12
PLATTSBURGH    LGT SNOW  23  20  88 S5        30.10F FOG     WCI  17
$$

NYZ001>004-010>016-019>021-020400-
WEST


CITY           SKY/WX    TMP DP  RH WIND       PRES   REMARKS
NIAGARA FALLS  CLOUDY    22  19  89 SW12      30.14F WCI  10
BUFFALO        LGT SNOW  23  19  85 SW13      30.14F FOG     WCI  11
DUNKIRK        LGT SNOW  23  20  88 SW8       30.17F FOG     WCI  14
JAMESTOWN      CLOUDY    23  19  86 SW3       30.09F
WELLSVILLE     CLOUDY    28  24  85 W8        30.05F WCI  20
ROCHESTER      LGT SNOW  25  21  85 W10       30.13F FOG     WCI  15
PENN YAN       CLOUDY    26  22  84 CALM      30.11F FOG
$$

             KEY
       WCI = WIND CHILL INDEX
       VSB = VISIBILITY
       HX  = HEAT INDEX
$$



USA.gov is the U.S. government's official web portal to all federal, state and local government web resources and services.